Regional Weather Roundup
Issued by NWS Portland, ME

Home | Current Version | Previous Version | Text Only | Print | Product List | Glossary On
Versions: 1 2 3 4 5 6 7 8 9 10 11 12 13 14 15 16 17 18 19 20 21 22 23 24 25 26 27 28 29 30 31 32 33 34 35 36 37 38 39 40 41 42 43 44 45 46 47 48 49 50
000
ASUS41 KGYX 192110
RWRGYX
WEATHER ROUNDUP FOR MAINE AND NEW HAMPSHIRE
NATIONAL WEATHER SERVICE GRAY ME
500 PM EDT SAT APR 19 2014

MEZ002-005-006-010-012-015-018-020-021-024-026-027-029-192200-
MAINE

CITY           SKY/WX    TMP DP  RH WIND       PRES   REMARKS
PORTLAND       MOSUNNY   53  27  36 N22G28    30.23R
SANFORD        PTSUNNY   54   0  11 W17G26    30.23R
BAR HARBOR     CLOUDY    48  28  46 NW12G25   30.16R
WISCASSET      SUNNY     52  26  36 NW8G21    30.23R
ROCKLAND       MOSUNNY   50  27  40 NW12G22   30.19R
FRYEBURG       CLOUDY    52  26  36 W12G20    30.25R
LEWISTONAUBURN PTSUNNY   48  27  43 NW15G24   30.24R
AUGUSTA        PTSUNNY   50  25  37 NW12G23   30.22R
WATERVILLE     CLOUDY    48  27  43 NW16G24   30.18R
BANGOR         PTSUNNY   48  26  42 NW15      30.18R
GREENVILLE       N/A     37  23  56 NW20G32   30.16R
MILLINOCKET    CLOUDY    46  24  42 NW15G24   30.16R
HOULTON        CLOUDY    45  26  47 NW17G24   30.10R
PRESQUE ISLE   CLOUDY    43  25  49 NW14G22   30.14R
FRENCHVILLE    FLURRIES  36  29  75 NW16G28   30.11R
CARIBOU        PTSUNNY   40  28  62 NW16G25   30.11R
$$

NHZ002-005-008-009-011-012-014-192200-
NEW HAMPSHIRE

CITY           SKY/WX    TMP DP  RH WIND       PRES   REMARKS
PORTSMOUTH     MOSUNNY   56  28  33 NW18G25   30.23R
ROCHESTER      MOSUNNY   51  29  42 NW24G32   30.24R
NASHUA         MOSUNNY   59  28  30 N21G29    30.25R
MANCHESTER     MOSUNNY   57  25  29 NW15G25   30.24R
CONCORD        SUNNY     55  26  32 N13G23    30.27R
LACONIA        MOSUNNY   48  28  46 NW18G26   30.29R
PLYMOUTH         N/A     46  30  52 NW17G24   30.30R
BERLIN         PTSUNNY   46  24  42 NW13G22   30.25R
WHITEFIELD     CLOUDY    46  24  42 N13       30.28R
JAFFREY        MOSUNNY   54  25  32 NW10G29   30.26R
LEBANON        MOSUNNY   52  24  33 N12G18    30.30R
MT WASHINGTON  FOG       18  18 100 NW60G68     N/A  VSB 0   WCI  -8
$$

VTZ005-007-008-192200-
VERMONT

CITY           SKY/WX    TMP DP  RH WIND       PRES   REMARKS
ST JOHNSBURY     N/A     46  23  40 MISG      30.29R
MONTPELIER     PTSUNNY   45  27  49 W15G23    30.36R
BURLINGTON     PTSUNNY   49  26  41 NW10      30.35S
$$

MAZ007-012-024-CTZ003-RIZ002-NYZ038-NYZ072-192200-
SOUTHERN NEW ENGLAND AND NY

CITY           SKY/WX    TMP DP  RH WIND       PRES   REMARKS
BOSTON         MOSUNNY   62  28  27 N18G25    30.22R
WORCESTER      SUNNY     58  26  29 NW17G25   30.22R
NANTUCKET      MOSUNNY   57  33  40 N8        30.22R
PROVIDENCE     PTSUNNY   64  26  23 N20       30.21R
HARTFORD       PTSUNNY   63  25  23 N16G23    30.22R
ALBANY         MOSUNNY   60  25  26 N15G21    30.29S
NEW YORK CITY  PTSUNNY   65  22  19 NE9       30.23R
$$

ANZ081-ANZ082-ANZ150-NHZ014-MEZ023>029-192200-
COASTAL MARINE OBSERVATIONS

STATION/POSITION TIME  TEMP    WIND        PRES    WAVE
                       AIR SEA DIR/SP/G            HT/PER
                 (UTC) (F)     (DEG/KT/KT) (MB)    (FT/S)
MOUNT DESERT ROC 2100   46                 1021.0R
MATINICUS ROCK   2100   46     320/ 19/ 20 1022.3R
PORTLAND WX BUOY 2100   48 41  340/ 17/ 21 1023.0R   4/ 9
WELLS            2100   54 40  320/ 16/ 23 1022.7R
ISLE OF SHOALS   2100   52     320/ 22/ 24 1023.0R
JEFFREYS LEDGE   2100      44                N/A     4/ 9
CASHES LEDGE BUO 2100   46 41  340/ 16/ 19 1022.2R   4/ 9
$$

.............KEY..............
   WCI - WIND CHILL
   TC  - TEMPERATURE IN CELSIUS
   VSB - VISIBILITY IN MILES
   HX  - HEAT INDEX
   FAIR- INDICATES FEW OR NO CLOUDS BELOW 12,000 FT, WITH NO
         SIGNIFICANT WEATHER AND/OR OBSTRUCTIONS TO VISIBILITY.





USA.gov is the U.S. government's official web portal to all federal, state and local government web resources and services.